Notices

What's New in latest Release from April 7th, 2021:

- Updated Glossary, including Speed of Maximum Gust, and Total Hourly Precipitation

- Updated national and regional climate services offices contacts and prices information

- Addition of station inventory lists for 1981-2010, 1971-2000, and 1961-1990 Normals.

If you haven't already, please take our survey and provide feedback about our website: https://eccc.sondage-survey.ca/f/LanguageSelection.aspx?s=442ca660-fcf1-47c0-95a9-59707d6fd709

Hourly Data Report for November 27, 2020

SHEARWATER RCS
NOVA SCOTIA
Current Station Operator: ECCC - MSC

44°37'47.000" N
63°30'48.000" W
24.00 m
8205092
71264
AAW

Download Data

Hourly Data (November 2020)
Hourly Data Report for November 27, 2020
TIME
LST
Temp Definition
°C
Dew Point Definition
°C
Rel Hum Definition
%
Precip. Amount Definition
mm

Wind Dir Definition
10's deg

Wind Spd Definition
km/h
Visibility Definition
km
Stn Press Definition
kPa
Hmdx Definition


Wind Chill Definition


Weather Definition


00:00 11.1 10.5 96 0.8 17 11   101.84     LegendNANA
01:00 11.0 9.9 93 0.0 16 12   101.75     LegendNANA
02:00 11.4 10.3 93 0.0 18 18   101.71     LegendNANA
03:00 12.0 10.2 89 0.0 18 16   101.63     LegendNANA
04:00 11.2 10.1 93 0.0 16 16   101.54     LegendNANA
05:00 10.9 10.2 96 0.0 17 12   101.45     LegendNANA
06:00 11.3 10.4 94 0.0 17 12   101.42     LegendNANA
07:00 11.2 10.7 96 1.3 17 17   101.40     LegendNANA
08:00 11.8 11.3 97 0.9 17 19   101.39     LegendNANA
09:00 12.5 11.8 96 0.0 19 19   101.37     LegendNANA
10:00 12.7 12.0 95 0.0 19 18   101.37     LegendNANA
11:00 12.5 11.9 96 0.3 18 11   101.32     LegendNANA
12:00 11.7 11.2 97 0.0 17 11   101.22     LegendNANA
13:00 12.1 11.9 98 0.0 14 8   101.07     LegendNANA
14:00 12.3 12.0 98 0.7 13 6   100.96     LegendNANA
15:00 12.3 12.0 98 0.5 17 1   100.88     LegendNANA
16:00 12.6 12.3 98 0.0   0   100.86     LegendNANA
17:00 11.8 11.5 98 0.0 25 3   100.86     LegendNANA
18:00 11.7 11.4 99 0.0 23 5   100.90     LegendNANA
19:00 11.7 11.5 98 0.0 27 4   100.93     LegendNANA
20:00 11.5 11.3 98 0.0 26 6   100.92     LegendNANA
21:00 11.5 11.3 98 0.0 29 6   100.92     LegendNANA
22:00 11.3 11.0 98 0.0 34 9   100.82     LegendNANA
23:00 11.0 10.4 96 0.0 32 11   100.83     LegendNANA

Notes on Data Quality.

Legend

  • E = Estimated
  • M = Missing
  • NA = Not Available*
  • [empty] = Indicates an unobserved value
Date modified: